[[{"header":{"parameterUnit":"m.s-1","parameterCategory":1,"la1":30.2992,"la2":30.254,"lo1":-89.0895,"lo2":-89.0443,"dy":0.0025,"dx":0.0025,"nx":19,"ny":19,"refTime":"2026-05-21T03:00:00:Z","depth":0,"parameterNumber":2,"parameterNumberName":"U-component_of_WINDS"},"data":[0,0,0,-0.1308,-0.1307,-0.1266,-0.1266,-0.1216,-0.1215,0,0,0,0,0,0,0,0,0,0,0,-0.132,-0.1319,-0.1308,-0.1307,-0.1266,-0.1266,-0.1216,-0.1215,0,0,0,0,0,0,0,0,0,0,0,-0.132,-0.1319,-0.1319,-0.1307,-0.1266,-0.1266,-0.1216,-0.1246,0,0,0,0,0,0,0,0,0,0,-0.1285,-0.1296,-0.1319,-0.1319,-0.1306,-0.1266,-0.1266,-0.1248,-0.1244,-0.1234,0,-0.1225,0,-0.1219,-0.1212,-0.1212,0,0,0,-0.1307,-0.1298,-0.1288,-0.1319,-0.1306,-0.1266,-0.1285,-0.1246,-0.1242,-0.123,-0.1224,-0.1222,-0.1218,-0.1212,-0.1211,-0.1154,-0.1154,0,0,-0.1309,-0.1312,-0.129,-0.1285,-0.1291,-0.1286,-0.1283,-0.1243,-0.1237,-0.1224,-0.1221,-0.1218,-0.1211,-0.1211,-0.1154,-0.1154,0,0,0,-0.1315,-0.1314,-0.1304,-0.1287,-0.128,-0.1285,-0.1282,-0.1239,-0.1236,-0.122,-0.1217,-0.1211,-0.121,-0.1155,-0.1154,-0.1144,0,0,0,-0.1317,-0.1317,-0.1305,-0.1306,-0.1281,-0.1259,-0.1278,-0.1238,-0.1234,-0.1217,-0.1211,-0.121,-0.1155,-0.1154,-0.1145,-0.1139,0,0,0,-0.1322,-0.1318,-0.1312,-0.1307,-0.1289,-0.1259,-0.1254,-0.1237,-0.1232,-0.1212,-0.121,-0.1155,-0.1154,-0.1146,-0.114,-0.1126,0,0,0,-0.1329,-0.1302,-0.1312,-0.1281,-0.129,-0.1253,-0.1254,-0.1227,-0.1208,-0.1211,-0.1155,-0.1154,-0.1146,-0.1141,-0.1126,-0.1114,-0.1109,0,0,-0.1297,-0.1299,-0.1281,-0.1288,-0.1251,-0.1259,-0.1221,-0.1201,-0.1196,-0.1169,-0.1167,-0.1145,-0.114,-0.1126,-0.1079,-0.1076,0,0,0,-0.1272,-0.1259,-0.1248,-0.1231,-0.1216,-0.1203,-0.1189,-0.1182,-0.1159,-0.1182,-0.1135,-0.1132,-0.1124,-0.1118,-0.1115,-0.1108,-0.1151,-0.1152,-0.1152,-0.123,-0.1227,-0.1197,-0.119,-0.1174,-0.1161,-0.1148,-0.1136,-0.1136,-0.1126,-0.1117,-0.109,-0.1083,-0.108,-0.1073,-0.111,-0.111,-0.111,-0.111,-0.1184,-0.1166,-0.1169,-0.1142,-0.1139,-0.1116,-0.1104,-0.1106,-0.1085,-0.1095,-0.1087,-0.1099,-0.1076,-0.107,-0.1109,-0.111,-0.111,-0.111,-0.111,-0.1157,-0.1148,-0.114,-0.1118,-0.1101,-0.1094,-0.1075,-0.1073,-0.1071,-0.1063,-0.1055,-0.1056,-0.1056,-0.106,-0.106,-0.106,-0.1059,-0.1059,-0.1059,-0.1131,-0.1124,-0.1107,-0.1091,-0.1082,-0.1069,-0.1058,-0.1048,-0.1038,-0.1038,-0.1038,-0.104,-0.1074,-0.1083,-0.1058,-0.1058,-0.1058,-0.1058,-0.1059,-0.1086,-0.1097,-0.1071,-0.1062,-0.1045,-0.1029,-0.1028,-0.1009,-0.1002,-0.0993,-0.0998,-0.1023,-0.1024,-0.1027,-0.1034,-0.0997,-0.0997,-0.0997,-0.0997,-0.1063,-0.1064,-0.104,-0.1025,-0.1011,-0.1008,-0.0982,-0.0974,-0.0968,-0.0963,-0.0969,-0.0978,-0.0981,-0.0981,-0.0984,-0.0991,-0.0945,-0.0945,-0.0944,-0.1036,-0.1036,-0.1013,-0.1008,-0.0995,-0.0984,-0.0961,-0.0945,-0.094,-0.0942,-0.096,-0.0962,-0.0978,-0.0983,-0.0985,-0.0991,-0.1003,0,0]},{"header":{"parameterUnit":"m.s-1","parameterCategory":1,"la1":30.2992,"la2":30.254,"lo1":-89.0895,"lo2":-89.0443,"dy":0.0025,"dx":0.0025,"nx":19,"ny":19,"refTime":"2026-05-21T03:00:00:Z","depth":0,"parameterNumber":3,"parameterNumberName":"V-component_of_WINDS"},"data":[0,0,0,3.2186,3.2185,3.2079,3.2079,3.1971,3.197,0,0,0,0,0,0,0,0,0,0,0,3.2237,3.2237,3.2187,3.2185,3.208,3.2079,3.1971,3.197,0,0,0,0,0,0,0,0,0,0,0,3.2237,3.2237,3.2237,3.2184,3.208,3.2079,3.1971,3.204,0,0,0,0,0,0,0,0,0,0,3.2138,3.2203,3.2237,3.2237,3.2184,3.208,3.2079,3.2043,3.2036,3.203,0,3.2033,0,3.2,3.1965,3.1964,0,0,0,3.217,3.221,3.2164,3.2237,3.2183,3.208,3.2123,3.2039,3.2031,3.2021,3.2031,3.2026,3.1998,3.1964,3.1964,3.1981,3.1982,0,0,3.2176,3.2228,3.217,3.216,3.2181,3.2126,3.212,3.2033,3.2047,3.2031,3.2023,3.1996,3.1964,3.1963,3.1981,3.1982,0,0,0,3.2202,3.2233,3.2188,3.2165,3.2144,3.2124,3.2116,3.2051,3.2032,3.2022,3.1995,3.1963,3.1962,3.198,3.1981,3.2068,0,0,0,3.2205,3.2248,3.2192,3.2222,3.2146,3.2097,3.2136,3.2038,3.2027,3.1996,3.1963,3.1961,3.1979,3.198,3.2064,3.21,0,0,0,3.2237,3.2251,3.2243,3.2225,3.2182,3.2097,3.2073,3.2035,3.2011,3.1964,3.1961,3.1978,3.198,3.206,3.2094,3.2117,0,0,0,3.2286,3.2324,3.2245,3.2276,3.2183,3.2153,3.2073,3.2047,3.2018,3.1963,3.1979,3.1981,3.2059,3.209,3.2114,3.2146,3.2165,0,0,3.2363,3.2335,3.2349,3.2275,3.2272,3.2164,3.2172,3.2096,3.2043,3.2004,3.2004,3.2065,3.2093,3.2117,3.2254,3.227,0,0,0,3.239,3.2401,3.2388,3.2362,3.2305,3.2256,3.2173,3.2143,3.2107,3.2035,3.2079,3.2094,3.2106,3.2118,3.2131,3.2136,3.199,3.1989,3.1989,3.2574,3.2504,3.252,3.2436,3.2411,3.2322,3.2294,3.2238,3.2177,3.2188,3.2176,3.2268,3.2285,3.2294,3.23,3.2188,3.2188,3.2188,3.2189,3.2678,3.268,3.2593,3.2578,3.2502,3.2487,3.24,3.2356,3.2328,3.2273,3.2279,3.2223,3.2314,3.2314,3.2195,3.2194,3.2193,3.2192,3.2192,3.279,3.2778,3.2741,3.2692,3.2661,3.2573,3.2549,3.2481,3.2416,3.2422,3.2399,3.2397,3.2385,3.2416,3.2417,3.2417,3.2417,3.2417,3.2418,3.292,3.2875,3.2865,3.2802,3.2773,3.2726,3.2633,3.2601,3.2548,3.25,3.2499,3.2433,3.2336,3.2312,3.2422,3.2421,3.2421,3.242,3.242,3.3049,3.3008,3.2993,3.2964,3.2881,3.2852,3.2764,3.2704,3.2667,3.2657,3.2588,3.2528,3.2495,3.2484,3.2463,3.2605,3.2605,3.2605,3.2605,3.3142,3.3118,3.3084,3.3041,3.299,3.2907,3.2886,3.2811,3.2727,3.2699,3.2668,3.2635,3.2627,3.2598,3.2584,3.2564,3.2729,3.2729,3.2729,3.3216,3.3183,3.3181,3.3099,3.3028,3.2967,3.2943,3.2893,3.2789,3.2732,3.2674,3.2669,3.2615,3.2601,3.2545,3.2526,3.2487,0,0]}]]